sat.trackr.live / text

‹ back to catalog

STARLINK-35948

NORAD 66633 · 2025-271S

PAYLOAD ACTIVE UNKNOWN

§ Identity

Operator
Country
US
Launch date
2025-11-23
Launch site
AFWTR
Launch vehicle
Mass (kg)
RCS (m²)

Purposes: comms

External: N2YO · Heavens-Above · Gunter

§ Orbital elements

Epoch: 2026-09-20T10:20:13.409664Z

Period
93.85 min
Inclination
53.1592°
Eccentricity
0.0000901
Mean motion
15.34401365 rev/d
Perigee alt
462.1 km
Apogee alt
463.3 km
Semi-major
6,840.8 km
B*
2.4384e-4
RAAN
310.3315°
Arg perigee
93.3602°
Mean anomaly
266.7504°
Rev number
4,745

§ Raw data

STARLINK-359481 66633U 25271S   26263.43071076  .00007872  00000+0  24384-3 0  99952 66633  53.1592 310.3315 0000901  93.3602 266.7504 15.34401365 47452

JSON: /api/v1/satellites/66633 · /tle

For live sub-satellite position, see the globe view (requires WebGL).

§ Visibility from observer

Set your observer location to see the next 7 days of passes ≥ 10°. The values pass through the URL so the page stays shareable.

No JS? Fill the form by hand. The geolocation button needs JavaScript.